{"data":{"norad_id":39635,"epoch":"2026-05-19T20:39:38.653920Z","epoch_age_seconds":514950,"freshness":"STALE","line1":"1 39635U 14017A   26139.86086405  .00000103  00000+0  00000+0 0  9999","line2":"2 39635  28.9733 240.8911 0024226 185.2284 176.5740  1.00280229 44519","mean_motion":1.00280229,"eccentricity":0.0024226,"inclination_deg":28.9733,"raan_deg":240.8911,"arg_perigee_deg":185.2284,"mean_anomaly_deg":176.574,"bstar":0,"rev_number":4451,"period_min":1435.9759788742,"perigee_km":35682.085422199,"apogee_km":35886.37051294,"semimajor_km":42162.36496757,"source":"CELESTRAK","updated_at":"2026-05-25T13:38:23.495183Z"}}